DLH4ME LPPT-LPMA

Flight info

Callsign DLH4ME
Flight time N/A
Altitude 35000
Route ULVOT DCT GALPA DCT RAKUN
Aircraft A320/M-SDE3FGHIRWY/LB1

Departure

Time 2026-05-05 16:29
Airport Lisbon Humberto Delgado Airport (LPPT)

Arrival

Time N/A
Airport Cristiano Ronaldo International Airport (LPMA)
Time Latitude Longitude Altitude Speed Heading
2026-05-05 16:03 38.77028 -9.13087 337 ft 0 kts 78°
2026-05-05 16:11 38.77027 -9.13087 337 ft 0 kts 78°
2026-05-05 16:14 38.77027 -9.13088 337 ft 0 kts 78°
2026-05-05 16:21 38.77021 -9.13128 335 ft 4 kts 79°
2026-05-05 16:22 38.77026 -9.13179 336 ft 0 kts 168°
2026-05-05 16:23 38.77027 -9.13179 338 ft 0 kts 167°
2026-05-05 16:23 38.77026 -9.13179 338 ft 0 kts 168°
2026-05-05 16:24 38.77021 -9.13177 338 ft 1 kts 168°
2026-05-05 16:24 38.77002 -9.13172 338 ft 6 kts 169°
2026-05-05 16:24 38.76932 -9.13156 338 ft 5 kts 169°
2026-05-05 16:25 38.76903 -9.13149 335 ft 4 kts 170°
2026-05-05 16:25 38.76776 -9.13225 340 ft 15 kts 253°
2026-05-05 16:25 38.76744 -9.13370 353 ft 17 kts 246°
2026-05-05 16:26 38.76635 -9.13597 345 ft 16 kts 256°
2026-05-05 16:26 38.76585 -9.13889 355 ft 18 kts 257°
2026-05-05 16:27 38.76542 -9.14039 355 ft 18 kts 239°
2026-05-05 16:27 38.76508 -9.14199 342 ft 21 kts 278°
2026-05-05 16:27 38.76524 -9.14264 337 ft 0 kts 291°
2026-05-05 16:27 38.76525 -9.14264 337 ft 0 kts 291°
2026-05-05 16:28 38.76527 -9.14273 338 ft 3 kts 292°
2026-05-05 16:28 38.76544 -9.14324 332 ft 9 kts 292°
2026-05-05 16:28 38.76582 -9.14399 333 ft 11 kts 333°
2026-05-05 16:28 38.76658 -9.14377 335 ft 14 kts 22°
2026-05-05 16:29 38.76933 -9.14236 353 ft 77 kts 21°
2026-05-05 16:29 38.77610 -9.13876 367 ft 132 kts 22°
2026-05-05 16:29 38.78590 -9.13348 469 ft 166 kts 20°
2026-05-05 16:29 38.79606 -9.12788 1298 ft 155 kts 17°
2026-05-05 16:30 38.79941 -9.12611 1547 ft 153 kts 15°